Location: Chervonnoye
(48.6000°N, 34.4000°E)
Time: 07:00:57
(UTC+00:00)

BEESAT 3 - Pass Details

Date: 10 December 2021
Orbit: 472 x 512 km, 64.9° (Epoch: 22 January)

Event Time Altitude Azimuth Distance (km) Brightness Sun altitude
Rises 16:16:34 0° 234° (SW) 2,556 ? -23.7°
Reaches altitude 10° 16:18:46 10° 242° (WSW) 1,686 ? -24.0°
Enters shadow 16:22:20 43° 313° (NW) 706 ? -24.6°
